Tracking 29591 objects as of 19-Sep-2024
HD Live streaming from Space Station
objects crossing your sky now

CRRES DEB (CANISTER)

Track CRRES DEB (CANISTER) now!


NORAD ID: 21594
Int'l Code: 1990-065K
Perigee: 472.4 km
Apogee: 33,311.0 km
Inclination: 17.2 °
Period: 588.5 minutes
Semi major axis: 23262 km
RCS: 0.1675 m2 (medium)
Launch date: July 25, 1990
Source: United States (US)
Launch site: AIR FORCE EASTERN TEST RANGE (AFETR)

Note: This is SATELLITE DEBRIS
Your satellite tracking list
Your tracking list is empty




NASA's NSSDC Master Catalog

Two Line Element Set (TLE):
1 21594U 90065K   24263.34077677  .00000152  00000-0  10783-2 0  9998
2 21594  17.1970 324.0124 7058227  11.7046 358.6884  2.44688307292045
Source of the keplerian elements: AFSPC